weather.gov     
National Weather Service

Regional Weather Roundup
NWS Homepage
This page is being discontinued on March 12, 2014.
The same data is available at this site. Please update your bookmarks.
Thank you, and we apologize for the inconvenience.
Please send an email to SR-SRH.Webmaster@noaa.gov with any concerns.


Current Version
Previous Version:    01  02  03  04  05  06  07  08  09  10  11  12  13  14  15  16  17  18  19  20  21  22  23  24  25  26  27  28  29  30  
   31  32  33  34  35  36  37  38  39  40  41  42  43  44  45  46  47  48  49  50  51  52  53  54  55  56  57  58  59  60  
[Printable]
821
ASUS44 KFWD 161115
RWRTX
NORTH TEXAS HOURLY WEATHER ROUNDUP
NATIONAL WEATHER SERVICE FORT WORTH TX
600 AM CDT TUE SEP 16 2014

NOTE: "FAIR" INDICATES FEW OR NO CLOUDS BELOW 12,000 FEET WITH NO
SIGNIFICANT WEATHER AND/OR OBSTRUCTIONS TO VISIBILITY.

TXZ118-119-161200-
DALLAS/FORT WORTH METROPLEX

CITY           SKY/WX    TMP DP  RH WIND       PRES   REMARKS
DFW AIRPORT    CLOUDY    76  68  76 CALM      30.10R
DALLAS LOVE    CLOUDY    77  69  76 E3        30.10R
FTW MEACHAM    CLOUDY    76  69  79 CALM      30.10S
DAL-EXECUTIVE  CLOUDY    75  69  81 CALM      30.10S
FTW-ALLIANCE   CLOUDY    72  68  87 CALM      30.10S
FTW-NAS-JRB    CLOUDY    80  67  64 CALM      30.14S
FTW-SPINKS     CLOUDY    72  69  90 CALM      30.12S
ARLINGTON      CLOUDY    73  69  87 CALM      30.10S
GRAND PRAIRIE  CLOUDY    76  68  76 CALM      30.11S
ADDISON        MOCLDY    77  70  78 CALM      30.11F
LANCASTER      CLOUDY    72  66  81 CALM      30.11R
$$

TXZ091>094-102>105-117-120-121-131>134-161200-
NORTH CENTRAL TEXAS

CITY           SKY/WX    TMP DP  RH WIND       PRES   REMARKS
SHRMAN/DENISON CLOUDY    73  69  86 E5        30.13S
GAINESVILLE    MOCLDY    72  70  94 CALM      30.14R
BOWIE          CLOUDY    71  70  95 CALM      30.13R
BRIDGEPORT     CLOUDY    71  71 100 CALM      30.13S FOG
DECATUR        CLOUDY    73  68  82 CALM      30.12S
DENTON         CLOUDY    73  69  87 CALM      30.11R
MCKINNEY       CLOUDY    73  71  93 N3        30.12R
GREENVILLE     DRIZZLE   72  70  94 CALM      30.12R
ROCKWALL       CLOUDY    73  71  92 CALM      30.10R
TERRELL        CLOUDY    75  72  90 CALM      30.11R
WAXAHACHIE     CLOUDY    73  68  85 CALM      30.12S
CLEBURNE       MOCLDY    73  72  94 CALM      30.12S
GRANBURY       MOCLDY    73  68  85 CALM      30.12S
$$

TXZ083>090-098>101-113>116-127>130-139>142-154-155-161200-
WESTERN NORTH TEXAS

CITY           SKY/WX    TMP DP  RH WIND       PRES   REMARKS
WICHITA FALLS  CLOUDY    73  69  87 E3        30.12S
WF-KICKAPOO    CLOUDY    73  69  86 CALM      30.13S
VERNON         MOCLDY    74  68  81 N5        30.14R
ABILENE        CLOUDY    73  66  78 SE3       30.15S
ABILENE-DYESS  CLOUDY    72  64  78 SE3       30.14S
BRECKENRIDGE   CLOUDY    74  66  75 CALM      30.13R
GRAHAM         CLOUDY    72  66  80 CALM      30.11S
MINERAL WELLS  CLOUDY    72  68  87 SE3       30.10F
STEPHENVILLE   CLOUDY    72  66  83 CALM      30.15S
COMANCHE         N/A     70  69  94 CALM      30.14R
BROWNWOOD      CLOUDY    70  68  94 CALM      30.13S
COLEMAN        CLOUDY    71  66  84 CALM      30.15S
BRADY          LGT RAIN  70  70 100 CALM      30.13S
$$

TXZ143>147-156>162-174-175-161200-
CENTRAL TEXAS

CITY           SKY/WX    TMP DP  RH WIND       PRES   REMARKS
WACO           CLOUDY    73  70  90 NE3       30.09R
WACO-MCGREGOR  CLOUDY    73  66  78 CALM      30.10S
HILLSBORO      CLOUDY    73  68  83 CALM      30.11R
CORSICANA      CLOUDY    74  71  91 N3        30.10S
MEXIA          CLOUDY    73  71  93 CALM      30.08S
HEARNE           N/A     75  73  91 CALM      30.08R
CAMERON        MOCLDY    74  72  92 CALM      30.08R
TEMPLE         CLOUDY    73  66  78 N5        30.09S
KILLEEN        CLOUDY    73  70  88 NW7       30.10S
KILLEEN-SKYLRK CLOUDY    73  66  78 CALM      30.10R
FORT HOOD      CLOUDY    75  70  84 CALM      30.10S
GATESVILLE     CLOUDY    72  72 100 CALM      30.12S
HAMILTON       CLOUDY    73  71  93 E8        30.13S
LAMPASAS       CLOUDY    71  69  94 N3        30.10F
$$

TXZ095>097-106>112-122>126-135>138-148>153-164>167-161200-
EAST TEXAS

CITY           SKY/WX    TMP DP  RH WIND       PRES   REMARKS
PARIS          CLOUDY    72  64  78 E7        30.13S
SULPHUR SPRNGS CLOUDY    72  71  97 E5        30.14R FOG
MOUNT PLEASANT CLOUDY    71  70  97 CALM      30.13S
GILMER         CLOUDY    73  72  94 CALM      30.13S
MINEOLA        CLOUDY    72  72 100 CALM      30.12R FOG
TYLER          CLOUDY    74  71  91 NE3       30.10R
LONGVIEW       CLOUDY    73  69  87 NE3       30.10R
MARSHALL       CLOUDY    73  70  90 CALM      30.13R
ATHENS         CLOUDY    72  72 100 CALM      30.08F FOG
PALESTINE      CLOUDY    75  72  88 E5        30.09S
JACKSONVILLE   CLOUDY    73  71  92 CALM      30.11S
HENDERSON      CLOUDY    73  71  95 MISG      30.11S
NACOGDOCHES    CLOUDY    73  70  88 NE3       30.09R
LUFKIN         CLOUDY    77  72  84 CALM      30.08R HAZE
$$

SUPPLEMENTAL OBSERVATIONS (CENTRAL)

CITY           SKY/WX    TMP DP  RH WIND       PRES   REMARKS
LAKE TEXOMA      N/A     72  68  88 E3          N/A
CADDO GRASSLND   N/A     72  68  88 S2          N/A
PAT MAYSE LAKE   N/A     70  68  94 E1          N/A
GREENVILLE       N/A     72  66  83 E3          N/A
CEDAR HILL       N/A     73  70  88 SE1         N/A
ATHENS           N/A     73  70  88 N1          N/A
LAKE LIMESTONE   N/A     73  70  88 NE3         N/A
MCGREGOR         N/A     72  68  88 CALM        N/A
$$

SUPPLEMENTAL OBSERVATIONS (WEST)

CITY           SKY/WX    TMP DP  RH WIND       PRES   REMARKS
MILLERS CREEK    N/A     73  66  78 SW2         N/A
LBJ GRASSLAND    N/A     73  66  78 SE3         N/A
COMANCHE         N/A     70  66  88 CALM        N/A
HAMBY            N/A     72  64  78 S5          N/A
IVIE RESERVOIR   N/A     72  68  88 NE3         N/A
COLORADO BEND    N/A     72  68  88 NE2         N/A
$$

SUPPLEMENTAL OBSERVATIONS (EAST)

CITY           SKY/WX    TMP DP  RH WIND       PRES   REMARKS
CLARKSVILLE      N/A     70  66  88 CALM        N/A
TEXARKANA        N/A     70  66  88 CALM        N/A
CADDO LAKE       N/A     70  68  94 CALM        N/A
GILMER           N/A     72  68  88 N1          N/A
HENDERSON        N/A     73  68  83 NE5         N/A
LUFKIN           N/A     73  70  88 MISG        N/A
N SABINE NF      N/A     72  68  88 MISG        N/A
S SABINE NF      N/A     75  70  83 E2          N/A
$$

SUPPLEMENTAL OBSERVATIONS ARE A COLLECTION OF AUTOMATED INSTRUMENTS
THAT ARE MAINTAINED BY A VARIETY OF FEDERAL AND STATE AGENCIES.
CERTAIN ELEMENTS...SUCH AS HUMIDITY VALUES AND SUSTAINED WIND
SPEEDS...MAY BE APPROXIMATED.





U.S. Dept. of Commerce
NOAA National Weather Service
1325 East West Highway
Silver Spring, MD 20910
E-mail: w-nws.webmaster@noaa.gov
Page last modified: May 16, 2007
NATIONAL WEATHER SERVICE: for Safety, for Work, for Fun - FOR LIFE